Location: Unspecified
(0.0000°N, 0.0000°E)
Time: 11:53:38
(UTC+00:00)

N. Korean satellite - Pass Details

Date: 24 March 2019
Orbit: 456 x 510 km, 97.2° (Epoch: 23 March)

Event Time Altitude Azimuth Distance (km) Brightness Sun altitude
Rises 05:34:01 0° 18° (NNE) 2,552 10.5 -8.1°
Reaches altitude 10° 05:36:06 10° 22° (NNE) 1,683 9.6 -7.6°
Maximum altitude 05:39:39 55° 101° (E) 602 7.5 -6.7°
Drops below altitude 10° 05:43:17 10° 180° (S) 1,716 9.4 -5.8°
Sets 05:45:25 0° 184° (S) 2,608 10.2 -5.3°
